Theta_e
337 337 333 327 333 335 335 336 336 337 338 338 338 337 337 337 337 337 338 338 339 338 338 337 336 334 333 332 330 330 331 331 333 333 333 333 333 334 334 335 336 336 337 338 338 338 338 338 337 335 332 331 330 331 332 332 331 331 330 331 331 330 330 330 331 332 332 332 333 333 332 332 332 332 330 330 331 330 331 331 331 332 333 333 332
337 337 332 329 334 335 335 335 335 336 337 337 335 335 335 335 336 337 337 338 338 338 337 334 333 333 333 334 332 332 332 332 332 332 332 332 333 333 333 334 334 334 335 336 336 336 336 337 336 333 331 331 330 330 331 331 331 332 331 331 331 330 330 330 331 331 331 331 332 333 332 332 331 331 331 331 330 330 330 330 331 331 331 331 331
337 337 331 331 336 335 335 335 335 335 336 336 333 333 334 335 336 336 337 337 338 337 336 333 333 334 334 334 333 332 332 332 331 332 332 332 332 332 332 332 333 333 333 333 334 334 334 335 335 333 332 331 331 331 331 332 332 332 333 332 331 331 330 330 330 330 330 331 331 332 333 332 332 331 331 331 330 331 331 331 331 331 331 330 330
338 336 330 333 336 335 335 335 335 334 335 335 333 333 335 336 336 337 337 337 337 337 337 335 333 334 334 334 333 332 332 332 332 332 331 332 331 331 332 332 332 332 332 332 332 332 332 333 333 333 331 331 331 331 331 332 333 333 333 333 332 332 331 330 330 330 330 330 330 331 332 333 332 331 330 330 330 330 330 330 331 331 331 330 329
338 334 328 331 334 333 333 334 334 334 335 334 333 335 335 336 336 337 337 337 337 336 336 335 333 333 334 333 332 332 332 332 332 332 332 332 331 332 332 332 332 332 332 331 331 331 331 332 332 332 331 330 331 331 330 331 333 332 332 332 332 332 331 331 330 330 329 329 329 330 331 331 332 331 329 327 326 327 328 329 330 330 329 329 328
337 331 325 328 332 333 334 334 334 335 335 334 334 334 335 336 336 336 337 335 334 334 335 335 334 333 332 332 333 333 332 332 332 332 332 331 331 331 331 331 331 331 332 331 331 331 331 331 330 330 330 331 331 331 329 331 332 332 331 331 332 332 331 331 330 330 329 329 329 329 329 330 331 331 330 327 325 325 326 328 329 329 328 328 328
334 327 322 326 331 333 334 334 334 334 335 334 334 334 335 336 336 337 336 334 333 334 335 335 334 333 333 333 333 332 331 331 331 332 330 330 330 331 330 331 331 331 331 331 331 330 330 330 329 329 329 330 330 329 329 330 331 331 330 330 331 331 331 330 330 330 329 329 328 328 328 328 329 329 329 328 326 325 325 326 326 326 325 325 326
329 322 320 326 331 332 332 333 334 334 333 333 333 334 335 336 336 336 335 333 332 333 334 333 333 333 333 332 331 331 332 331 331 331 330 330 331 330 330 331 331 331 331 331 331 330 330 329 329 329 329 330 329 328 328 329 330 331 330 330 330 330 330 330 330 329 329 328 327 326 326 326 326 326 326 325 325 324 323 324 324 323 321 320 322
325 318 319 325 328 329 331 333 333 333 332 332 332 333 334 334 335 335 333 332 331 331 331 332 332 332 332 330 330 331 332 332 331 331 332 331 330 329 330 330 331 330 331 330 330 330 329 329 328 329 330 329 327 327 327 327 328 330 330 329 328 328 328 328 328 328 327 327 326 326 325 325 325 325 325 324 324 322 321 320 320 322 322 321 322
322 317 319 323 325 328 330 332 333 333 332 332 332 332 332 333 334 334 333 332 331 328 328 331 332 331 331 330 330 331 331 331 331 332 332 331 330 330 330 330 330 330 331 330 329 329 329 329 328 329 330 327 326 326 326 327 327 329 329 329 327 327 326 326 326 326 326 325 325 325 325 326 326 326 326 325 323 323 323 321 320 322 323 323 323
321 316 319 320 325 328 329 331 332 333 334 332 331 332 333 333 333 333 332 331 329 326 327 330 331 331 331 330 330 330 331 331 331 331 329 330 330 329 329 330 330 330 330 330 329 329 328 328 328 330 329 326 326 326 326 327 327 328 328 328 327 327 326 326 326 325 325 324 324 324 325 326 326 327 327 326 324 323 323 323 323 323 323 323 323
320 316 317 320 326 328 329 330 332 334 334 334 332 332 334 334 333 332 330 329 329 328 329 330 330 330 330 329 329 329 331 331 331 328 327 330 331 328 327 329 330 330 330 329 329 328 328 327 327 329 328 326 325 325 326 326 327 328 328 328 328 327 327 326 326 325 324 324 323 323 324 325 325 326 325 325 324 323 323 323 322 322 323 322 322
320 316 316 318 325 327 328 329 331 332 333 334 334 334 333 333 332 330 329 328 329 329 329 330 329 329 329 329 328 329 331 332 331 329 328 330 331 329 327 327 329 329 329 329 329 329 328 327 326 327 327 326 325 325 325 326 326 327 327 327 327 327 327 326 326 325 325 324 323 321 322 324 325 325 325 324 323 323 322 322 321 321 321 321 321
318 315 314 316 321 325 326 327 328 330 331 332 333 333 331 331 330 329 329 329 329 329 330 330 329 329 328 328 328 329 330 331 331 330 328 328 329 329 328 326 327 328 328 328 328 328 327 327 325 324 326 326 325 324 325 326 326 326 327 327 326 326 326 325 325 325 324 323 321 320 319 321 324 324 324 323 322 321 321 321 320 320 320 319 319
317 315 314 314 318 322 325 326 326 328 330 331 332 332 331 330 330 329 329 330 330 329 329 330 329 329 328 328 328 328 329 330 331 331 329 327 328 327 327 326 325 326 327 328 329 328 327 327 324 323 325 326 325 324 324 326 325 325 326 327 326 325 325 325 324 324 324 323 322 320 318 320 323 323 322 322 322 321 321 320 320 320 320 319 318
317 316 314 313 315 319 322 323 324 326 328 328 330 330 330 330 329 328 329 330 330 327 326 328 328 328 328 328 328 327 328 329 330 329 329 329 328 327 328 327 324 324 326 327 327 327 327 325 323 322 324 325 325 324 324 325 324 324 325 326 325 324 325 324 324 324 323 323 322 319 319 320 322 323 322 321 321 321 320 320 320 319 318 317 317
318 317 316 314 314 315 318 320 320 324 325 325 326 326 326 327 326 328 329 329 330 327 325 325 325 326 327 328 328 325 325 328 328 328 329 328 329 330 329 327 325 324 325 326 326 326 326 325 322 322 322 323 323 324 325 325 324 323 324 324 324 323 323 324 324 324 323 323 321 320 319 320 320 321 321 321 321 320 320 320 319 318 317 317 317
319 318 317 316 315 314 315 316 317 321 324 323 323 322 324 325 323 325 328 328 328 327 326 324 323 324 326 327 327 325 324 324 325 327 328 328 329 330 330 328 327 326 323 324 325 324 325 324 322 322 322 322 322 323 324 324 324 323 323 324 323 323 323 323 323 323 323 322 321 320 319 320 321 320 320 320 320 320 320 319 319 318 318 318 318
322 319 319 318 317 315 314 314 315 318 321 322 322 321 323 324 322 322 325 327 327 325 324 321 320 322 324 326 325 324 323 322 323 325 326 327 328 329 330 328 327 326 322 320 323 324 325 324 323 323 322 322 322 322 323 323 323 323 323 323 323 323 322 323 322 322 322 322 321 320 318 319 320 320 320 319 320 320 319 318 318 317 317 316 317
326 321 320 320 318 317 315 314 314 315 318 320 321 321 322 323 322 321 322 324 325 324 321 318 317 318 320 323 323 323 323 322 322 322 323 324 326 327 327 325 323 323 321 318 320 323 324 324 322 323 323 323 322 322 323 323 323 323 323 323 322 322 322 322 322 322 322 322 322 320 318 318 320 320 320 320 320 319 318 318 317 317 317 316 316
329 325 323 321 320 319 318 316 315 314 315 317 318 319 321 322 322 321 320 321 322 321 319 315 314 316 317 318 320 321 321 321 321 321 321 321 321 321 320 319 317 317 318 317 317 319 321 321 321 322 323 323 323 323 323 323 323 322 322 322 322 322 322 322 322 322 323 323 322 321 319 318 320 320 319 319 318 317 318 318 317 317 317 316 316
332 330 328 326 323 321 320 319 316 315 314 314 315 316 319 321 321 321 320 319 319 318 317 314 317 322 321 319 318 318 318 317 318 318 318 318 318 317 316 316 315 313 314 316 315 316 318 319 320 321 322 322 321 322 322 323 323 323 323 322 321 322 322 322 322 322 322 323 322 321 319 318 319 319 319 320 319 318 317 317 316 316 317 316 316
336 335 334 332 329 325 322 321 319 317 316 314 314 314 316 319 320 320 320 319 318 318 317 318 322 327 327 324 322 321 319 316 314 314 314 314 314 314 314 313 313 312 310 313 315 315 318 318 319 321 321 321 321 320 321 322 322 323 323 322 322 321 321 322 321 322 322 322 323 322 321 319 318 319 320 320 319 318 317 317 317 317 316 316 316
338 338 337 336 335 333 327 323 322 320 320 318 315 314 314 316 318 319 319 319 318 318 319 324 327 328 328 327 326 325 324 321 316 312 311 311 311 310 310 309 309 310 309 312 315 315 317 318 319 322 322 322 322 321 320 321 322 323 323 323 322 322 321 322 321 322 322 322 323 322 322 320 319 319 320 320 319 319 318 317 317 317 316 316 316
339 339 339 338 337 337 333 328 327 325 325 323 320 317 315 314 315 316 318 318 318 318 319 325 329 329 329 329 327 327 326 325 321 315 312 311 310 309 309 309 308 310 310 310 314 315 315 317 319 321 322 322 322 322 321 322 322 322 323 323 323 323 322 322 321 321 322 323 322 322 322 322 320 320 320 320 320 319 318 317 317 317 316 316 316
338 339 338 338 338 338 336 333 333 331 330 328 325 322 318 316 315 315 316 316 317 318 318 322 328 329 329 329 328 328 327 327 324 318 318 318 316 314 313 312 310 312 312 310 312 312 312 315 317 320 321 322 322 322 322 322 322 322 322 323 323 323 323 322 322 322 322 322 322 322 322 322 321 321 320 320 320 320 319 318 317 317 317 316 316
338 338 338 338 338 339 338 336 335 334 334 332 331 329 325 320 318 319 317 317 317 317 318 320 326 329 329 329 328 328 328 327 325 321 322 323 322 321 319 318 315 314 314 312 312 310 311 314 315 318 321 321 322 322 321 321 322 322 322 322 323 323 323 323 322 322 322 322 322 322 322 322 322 321 321 320 320 320 320 319 318 318 318 318 317
338 337 338 338 338 339 338 337 336 335 335 334 334 333 331 325 323 326 324 323 322 319 321 322 325 329 329 329 328 329 329 328 326 323 323 324 324 324 323 322 321 318 316 316 316 314 313 313 313 316 319 320 320 320 320 321 322 322 322 323 323 323 323 323 323 322 322 322 322 322 322 322 322 321 321 321 321 321 321 320 320 319 319 319 318
337 337 337 338 338 339 338 338 336 335 335 335 335 334 333 329 327 330 329 329 329 326 327 326 326 327 327 328 328 329 329 328 326 325 325 325 325 325 325 324 324 322 320 318 318 318 317 315 313 313 316 317 316 317 318 320 320 320 321 321 322 323 322 322 322 322 322 322 322 322 322 322 322 322 321 321 322 322 322 322 322 322 321 320 319
336 337 337 337 338 338 338 338 337 336 336 336 335 334 333 332 330 330 331 331 331 330 330 330 329 327 326 326 327 328 329 327 325 326 327 325 325 325 325 325 324 324 323 321 320 319 318 317 315 314 315 316 315 315 316 315 315 315 316 316 318 320 320 319 319 319 320 321 321 322 322 322 322 322 322 321 321 322 322 322 323 323 322 321 320
335 335 336 337 337 337 338 338 337 337 336 336 335 334 334 333 332 331 332 332 331 331 331 331 331 330 328 327 328 327 326 326 325 327 328 327 326 325 325 325 325 324 324 323 322 321 320 319 317 317 317 317 317 317 316 315 315 315 315 315 315 316 316 316 316 316 317 318 319 320 321 321 322 322 321 321 321 321 321 322 322 322 322 322 322
334 334 335 335 336 337 337 337 338 337 337 337 336 335 334 334 333 333 333 332 331 331 331 331 330 330 330 330 330 329 326 325 326 327 327 328 327 326 326 325 325 325 324 323 323 322 321 320 319 318 319 319 320 320 319 318 318 318 317 317 317 317 316 316 316 316 316 317 317 317 317 318 320 321 321 321 321 321 320 321 321 322 322 322 323
333 334 333 334 334 336 336 337 337 337 337 337 336 335 335 335 334 334 333 332 331 331 331 331 331 330 330 330 330 330 329 327 327 327 327 327 328 327 327 326 326 325 325 324 324 323 323 322 321 321 321 321 321 322 321 319 320 319 318 318 317 317 317 317 317 317 318 318 318 318 317 317 317 318 319 320 319 320 320 320 320 321 321 321 322
333 333 334 333 334 335 336 336 336 337 337 336 337 335 334 335 334 334 334 333 332 332 331 331 331 331 331 330 330 330 330 329 328 327 327 327 327 327 327 326 326 326 326 325 324 324 324 324 323 322 322 321 322 322 321 320 320 319 319 318 317 317 317 316 317 318 319 319 319 319 319 319 318 318 318 318 318 318 318 319 319 319 320 320 320
334 333 334 334 334 334 335 336 336 336 337 336 337 336 335 334 335 334 334 334 333 332 332 332 331 332 331 331 331 330 330 330 330 329 328 328 327 327 327 327 326 326 326 326 325 325 325 325 324 323 323 322 322 322 321 321 322 322 322 321 320 320 319 319 319 319 320 320 321 320 320 320 320 320 319 319 318 318 318 318 318 318 319 319 320
334 334 334 334 334 334 334 334 335 336 336 337 336 336 335 335 335 334 334 334 334 333 333 332 332 331 332 332 331 330 330 330 330 330 329 328 327 327 327 327 327 327 326 326 326 325 325 325 324 324 324 324 324 324 324 323 323 324 324 323 323 323 322 322 322 322 322 321 321 321 321 320 320 320 320 320 320 320 319 319 318 318 318 318 319
334 335 334 334 334 334 334 333 334 335 336 336 336 336 335 335 335 334 334 334 334 334 333 332 332 331 331 331 332 331 330 330 329 329 329 329 328 327 327 327 327 326 326 326 326 325 325 325 325 325 324 324 324 324 325 325 325 325 324 324 324 323 323 324 324 323 322 321 321 321 321 321 321 321 321 321 321 321 321 320 319 319 318 318 318
334 335 335 335 334 334 334 334 333 334 335 336 336 336 335 335 335 334 334 334 334 334 333 333 333 332 332 331 332 332 330 330 330 329 329 329 328 327 327 327 327 327 327 326 326 325 326 325 325 325 324 324 324 324 324 325 325 324 324 324 324 324 323 324 323 323 322 322 322 322 322 322 321 321 321 321 321 321 321 321 320 320 319 318 318
335 335 335 335 334 334 334 334 334 334 334 335 335 335 336 335 336 335 335 335 335 334 333 333 333 333 333 332 331 331 331 330 330 329 329 328 327 326 326 327 327 327 327 327 326 326 326 326 325 325 325 325 324 324 325 325 325 325 324 324 324 324 323 324 324 323 323 323 323 323 323 322 322 321 321 321 321 321 321 321 320 320 319 319 318
335 335 335 335 335 335 335 334 334 334 334 334 335 335 336 336 335 335 335 335 335 335 334 333 333 333 333 333 333 332 331 331 330 330 329 328 328 327 327 327 326 326 327 327 326 326 326 326 326 325 325 325 326 325 325 325 325 324 324 324 324 324 323 324 324 324 324 324 324 324 323 323 322 322 322 322 322 321 321 321 320 320 319 319 318
335 335 336 335 335 335 335 335 334 334 334 334 334 335 335 336 335 334 334 334 334 335 334 334 334 334 333 332 332 332 332 331 331 330 330 329 329 328 328 327 326 325 327 326 326 326 326 326 326 325 326 326 326 326 326 325 323 321 322 323 324 323 323 323 324 324 324 324 323 323 323 323 323 322 323 323 322 321 321 320 320 320 319 319 318
335 336 336 336 335 335 335 335 335 334 334 334 334 334 335 335 335 334 333 333 334 334 334 334 334 333 333 332 331 331 331 331 331 332 331 331 330 330 329 328 326 325 327 327 327 327 327 327 326 326 326 326 326 326 325 324 322 321 321 321 321 322 322 322 322 322 322 323 323 323 322 322 322 323 323 323 322 321 321 320 320 319 319 319 318
335 335 336 336 335 335 335 334 335 335 334 335 334 334 334 334 335 334 332 332 333 333 334 333 333 333 333 332 332 332 332 331 331 331 331 331 331 330 330 329 327 327 328 328 328 328 327 327 327 327 326 326 325 325 325 325 324 323 321 321 320 321 322 321 321 321 321 322 322 322 322 322 322 322 322 322 321 321 321 320 320 320 319 319 319
334 334 335 335 335 335 335 334 334 334 334 334 334 334 334 334 334 334 332 331 332 332 333 334 333 333 333 333 332 332 332 332 331 331 332 331 330 330 330 329 329 329 329 329 329 329 329 328 328 327 326 326 325 325 325 324 325 324 322 322 320 320 323 322 319 321 321 321 321 321 321 320 321 321 321 320 320 320 320 320 320 320 319 319 318
333 333 334 334 335 334 335 335 334 334 334 334 334 334 334 334 334 334 333 332 332 333 333 334 333 333 333 332 332 331 331 331 331 332 332 331 330 330 330 330 330 330 329 329 329 329 329 329 328 328 327 327 326 325 325 324 325 325 323 322 322 322 324 321 319 320 321 320 321 320 320 319 319 319 319 319 319 319 319 319 319 318 318 318 318
332 333 333 333 334 334 334 334 334 334 334 334 334 334 333 333 334 334 334 333 332 332 332 332 332 332 331 330 330 330 331 331 332 332 332 331 331 330 330 331 330 329 329 328 327 327 329 329 328 328 327 328 326 324 324 324 324 324 323 323 323 323 322 320 319 320 319 319 320 320 319 318 318 318 318 319 318 318 318 318 318 317 317 317 317
332 332 333 333 333 333 333 333 334 334 334 334 334 333 333 333 333 334 334 333 332 331 331 330 330 330 330 330 330 331 331 332 332 331 332 331 331 330 330 330 330 329 329 328 328 328 328 328 328 328 327 327 326 324 324 324 324 324 323 322 322 322 320 318 318 319 318 318 318 318 318 318 317 317 318 318 318 317 317 317 316 316 316 316 316
332 332 332 333 333 333 333 333 333 333 334 334 333 333 333 332 332 332 333 332 332 331 330 330 330 330 330 331 331 331 331 332 331 330 331 331 330 329 329 329 329 328 328 328 327 327 327 327 327 326 326 325 325 324 324 324 323 323 322 321 321 321 321 319 318 317 316 317 317 317 317 317 317 317 317 317 316 316 316 316 316 316 316 315 315
330 331 332 333 333 333 333 333 333 333 333 333 333 333 333 332 332 332 332 332 331 331 330 330 330 330 330 330 330 330 330 330 329 327 328 329 328 328 327 326 326 326 326 326 326 326 326 326 325 324 324 323 323 323 323 323 322 322 321 321 320 320 320 320 319 316 315 316 318 317 316 316 316 316 316 316 316 316 316 315 316 315 315 315 315
327 328 330 331 332 333 333 333 333 334 333 333 333 333 333 332 332 332 332 331 331 331 330 330 330 329 329 328 328 328 328 327 327 326 326 326 326 326 325 325 325 325 324 324 324 324 324 323 323 322 322 322 321 321 321 321 320 320 320 320 320 319 319 318 318 317 315 314 315 315 315 315 315 315 315 315 316 315 315 315 315 315 315 315 315
319 320 322 324 327 330 331 332 333 334 334 333 334 333 333 333 332 332 332 331 331 330 329 329 329 328 328 327 327 327 326 326 325 325 325 324 324 324 323 323 322 322 322 322 322 322 322 321 320 320 320 320 319 319 319 319 319 319 318 318 318 318 318 317 317 318 316 314 314 314 314 314 315 315 315 315 314 315 315 315 315 315 314 315 315
Wind_Speed
13 11 9 11 13 12 12 13 13 12 12 13 14 14 15 14 14 14 15 16 16 16 16 17 17 16 16 16 17 18 18 19 19 19 19 18 18 18 18 18 17 17 17 16 16 16 17 17 18 19 21 21 21 22 22 22 22 22 22 22 22 21 19 19 19 19 19 20 20 20 20 20 19 19 19 18 18 18 19 19 19 19 19 19 19
15 13 11 12 14 13 13 13 14 13 11 11 14 14 14 14 14 14 14 15 15 16 16 16 17 17 17 17 17 19 19 19 19 19 18 17 18 19 19 18 18 18 17 16 16 16 16 15 16 17 20 20 21 22 22 21 20 19 20 21 21 20 19 18 19 19 20 20 22 21 20 20 19 19 19 18 18 18 18 18 19 19 18 17 18
16 14 12 14 14 13 13 13 14 14 12 11 13 14 14 14 13 14 14 15 15 15 15 16 17 17 17 17 17 18 18 18 18 18 18 18 18 19 19 19 19 19 18 17 17 17 16 15 15 17 19 19 20 21 21 20 19 18 17 18 20 20 18 18 18 20 21 22 23 22 21 20 19 19 18 18 18 18 18 18 18 18 16 15 16
16 15 14 15 15 14 14 14 15 15 14 12 13 14 15 14 14 14 14 15 15 14 14 15 16 17 17 15 16 17 18 18 18 17 17 18 18 18 18 18 19 19 18 18 18 18 17 16 16 16 17 18 20 21 21 20 18 17 17 17 17 18 17 17 17 19 21 22 22 23 22 20 19 17 17 17 17 17 17 17 17 17 16 15 15
16 15 14 15 15 15 15 15 16 15 14 13 13 15 15 15 14 15 15 15 15 15 14 14 15 17 16 14 16 17 17 17 17 17 17 17 17 17 18 18 18 18 18 18 17 17 17 16 16 16 18 20 22 21 21 20 17 16 17 16 16 16 16 16 16 17 19 19 20 20 19 19 18 16 15 15 14 14 14 15 15 15 15 14 14
16 14 14 15 16 17 17 16 16 16 14 13 14 15 15 15 15 15 16 16 15 15 15 14 15 17 16 15 16 16 16 16 16 16 16 17 16 16 17 17 17 17 17 17 17 17 17 16 16 18 20 21 21 20 20 19 17 16 17 17 16 15 16 16 16 17 17 17 17 17 17 17 18 16 15 15 14 13 13 13 13 14 14 14 14
15 14 14 16 18 18 18 17 16 16 15 13 14 15 15 15 15 15 15 15 15 15 15 14 15 16 16 15 15 15 15 16 15 15 16 16 16 16 16 16 16 16 17 16 17 16 16 16 16 18 19 20 20 18 19 18 17 16 17 17 16 16 17 17 17 17 16 16 16 16 15 14 15 15 14 13 12 12 13 13 13 13 12 12 12
14 15 15 18 18 18 19 19 17 15 14 13 13 14 15 15 15 14 14 14 14 15 15 15 14 14 15 15 15 14 14 15 16 15 15 15 15 15 16 16 16 16 16 16 16 16 16 16 16 17 17 18 19 19 18 18 17 16 16 16 17 16 17 16 16 15 14 14 14 13 13 12 12 13 12 11 11 11 12 13 13 12 12 11 11
14 15 17 18 17 18 19 20 18 14 13 13 12 13 14 14 14 13 13 13 13 13 14 15 14 14 14 14 15 15 14 15 15 15 15 14 14 15 15 15 15 15 15 15 15 15 15 15 16 17 16 18 19 19 18 18 17 16 15 16 15 15 14 14 14 13 12 12 12 11 12 12 12 12 12 12 12 12 12 13 14 14 14 13 12
15 15 17 17 17 18 19 20 18 15 13 13 12 12 13 13 13 13 12 11 10 10 13 15 14 14 14 14 15 14 14 14 14 14 14 13 14 16 15 14 15 15 15 15 15 15 15 15 15 16 16 19 19 18 18 17 17 17 15 15 14 13 13 12 12 12 12 12 13 12 12 12 13 12 12 12 13 13 13 13 14 14 13 12 12
14 15 16 16 18 18 19 19 19 17 14 12 12 13 13 13 12 12 12 10 9 11 15 16 14 13 14 14 14 14 14 14 13 13 12 12 14 15 15 15 15 15 14 14 14 14 14 14 14 15 16 18 18 17 17 16 17 16 15 15 13 12 11 10 11 12 12 12 12 12 11 11 12 12 11 12 12 12 12 12 11 11 10 9 9
15 15 16 16 18 18 19 19 19 19 15 13 12 13 14 13 12 11 10 10 12 15 16 15 14 13 13 13 14 14 13 13 12 11 11 12 13 14 15 15 14 14 14 14 13 13 13 13 13 15 17 18 16 16 16 15 15 15 15 13 12 11 10 9 10 11 11 11 11 10 10 10 11 10 10 10 10 11 10 10 9 9 9 9 8
16 16 16 17 18 17 18 18 19 18 17 15 13 13 13 13 12 11 12 13 15 16 15 15 14 14 13 13 14 13 12 12 11 11 11 12 13 12 13 13 13 13 13 13 13 12 12 12 12 16 17 16 15 14 14 13 13 12 12 12 12 10 9 9 9 9 9 9 10 10 10 10 10 9 9 9 9 9 9 9 8 8 8 8 8
17 17 17 16 17 17 17 18 18 17 18 16 14 12 10 10 11 11 13 14 15 15 16 15 14 14 13 13 13 13 13 12 11 11 11 11 11 10 10 11 12 12 12 12 12 11 11 11 12 15 16 14 14 13 13 13 12 11 10 11 11 9 8 8 8 8 8 8 9 9 9 8 8 7 7 8 7 7 8 8 8 8 8 7 7
18 18 17 16 16 16 16 17 16 17 18 17 14 11 9 9 10 11 13 14 14 14 15 15 15 15 14 13 13 13 13 13 12 11 10 10 9 9 9 9 10 11 11 11 11 10 10 10 11 13 14 14 14 13 13 13 12 11 10 10 9 8 7 7 7 7 7 8 8 9 9 8 7 6 6 6 6 7 7 7 7 7 7 7 6
17 18 17 16 16 15 16 15 15 16 17 16 14 13 12 11 12 12 13 14 13 13 13 14 15 16 16 14 13 12 12 12 12 12 11 10 10 9 9 9 10 11 10 10 9 9 9 9 10 11 12 12 13 12 12 12 12 11 11 10 8 6 6 5 6 6 6 7 7 8 8 8 8 7 6 6 5 5 6 5 5 5 5 5 6
17 18 18 17 16 15 15 15 15 16 17 15 13 13 12 11 12 14 14 13 13 12 12 12 13 14 15 15 13 11 12 11 11 12 11 10 9 9 10 10 10 10 9 9 8 8 7 8 9 9 9 10 11 12 11 10 10 10 10 10 8 7 6 5 5 5 5 5 6 7 7 7 7 6 5 5 5 4 5 4 5 5 5 5 5
17 17 17 17 16 15 15 14 14 16 17 15 13 12 11 11 12 14 15 14 13 11 10 11 11 12 13 13 12 10 11 10 10 9 9 9 8 9 10 9 7 6 7 8 7 7 7 7 8 8 8 9 10 11 10 9 8 8 8 8 6 5 6 5 4 4 4 4 6 6 6 5 5 5 4 4 4 4 4 4 4 4 4 3 2
17 17 17 17 16 15 15 14 14 15 16 15 13 11 11 11 11 13 14 14 13 11 9 10 10 12 13 12 10 9 10 10 9 8 8 7 7 8 7 5 3 3 5 6 7 7 7 7 7 7 7 8 9 10 10 8 7 6 6 6 4 4 6 6 4 3 3 4 6 6 5 3 3 4 3 3 3 3 3 2 2 2 2 2 1
18 16 16 16 17 16 15 15 14 14 15 15 13 12 11 11 11 12 12 13 12 10 9 9 10 11 12 11 9 9 9 9 9 8 8 7 6 6 5 3 2 2 3 5 5 6 6 7 7 7 7 8 8 9 9 8 7 5 5 5 3 3 4 5 3 3 4 5 6 5 5 4 3 2 2 2 1 2 2 2 2 2 1 0 0
19 17 16 16 16 16 15 15 15 14 14 14 13 13 12 11 12 11 11 12 11 10 9 9 10 11 11 10 9 8 8 8 7 7 7 7 6 5 4 2 1 2 2 3 4 4 5 6 7 6 6 7 7 8 8 8 7 6 5 5 3 2 3 3 2 3 4 4 5 4 5 4 3 2 1 1 1 1 0 0 1 1 1 1 2
22 20 18 17 16 16 16 16 15 15 14 13 14 13 13 13 12 12 11 11 11 11 10 11 12 11 11 10 10 9 8 7 7 7 7 6 6 5 3 2 1 1 2 2 3 4 4 5 6 6 6 7 7 7 7 7 7 6 4 4 3 1 1 2 2 3 4 4 5 4 4 2 2 2 2 2 0 2 2 2 2 3 3 3 3
24 23 21 19 17 16 16 16 16 16 15 14 13 13 14 14 13 12 12 11 12 11 11 12 12 11 11 11 10 9 7 6 6 6 6 6 5 4 3 2 2 1 2 3 3 4 5 5 6 7 7 7 7 7 7 7 8 6 4 3 3 1 1 2 3 5 5 5 5 5 4 2 1 2 3 2 3 4 4 3 4 4 4 4 4
27 24 23 21 19 17 17 16 16 16 16 15 14 14 14 14 14 13 12 12 12 12 12 12 12 10 10 9 8 7 6 5 4 5 5 5 5 4 3 2 2 1 2 4 5 5 5 6 7 7 7 7 6 7 7 8 8 6 4 3 2 2 2 3 4 6 7 7 7 6 5 3 1 3 4 4 5 6 5 5 5 5 6 5 6
27 25 23 23 20 18 18 18 17 17 17 16 15 14 14 14 14 14 13 13 12 12 12 12 12 10 9 7 6 6 5 3 2 3 4 4 4 3 3 3 3 2 2 4 6 6 5 6 7 6 6 5 5 6 7 8 7 6 5 4 3 3 3 4 5 6 7 8 8 8 7 6 3 5 5 5 6 7 7 6 6 6 7 8 7
25 25 25 24 22 19 19 19 18 17 17 15 14 14 14 14 14 14 13 13 12 12 13 13 13 11 9 7 7 7 6 4 2 3 5 4 3 3 3 3 3 3 3 4 6 5 5 6 6 6 5 5 4 4 5 6 6 6 7 7 6 5 5 6 7 8 8 9 9 9 9 8 6 6 6 7 7 9 8 8 9 8 7 8 8
26 25 25 24 23 21 19 19 19 17 16 14 14 14 14 15 14 14 13 13 12 12 13 14 14 13 11 9 9 8 7 6 5 5 5 4 3 3 3 3 2 3 3 3 5 4 4 6 7 7 6 6 6 6 5 5 6 6 7 8 8 8 7 8 10 11 11 10 10 11 11 11 10 9 8 9 9 10 10 10 13 11 9 10 11
28 26 25 24 24 23 21 21 19 18 17 16 15 14 14 15 15 14 12 12 12 12 11 13 15 14 12 10 10 9 8 7 7 6 6 6 4 3 3 3 2 1 1 2 3 3 3 5 6 7 7 7 7 7 7 7 8 9 10 10 11 11 10 11 12 13 13 13 12 12 13 13 13 12 11 11 11 12 13 13 14 14 12 12 13
29 28 26 25 25 24 23 23 21 19 19 18 17 16 14 14 16 15 13 12 12 11 9 10 13 14 13 11 10 10 9 10 10 8 7 7 6 4 4 4 3 2 3 3 3 4 3 4 5 7 8 8 8 8 9 10 11 13 14 14 14 14 14 14 14 15 15 15 15 15 15 15 16 15 15 14 14 14 15 15 16 16 16 16 15
29 29 28 27 26 25 25 25 23 21 20 20 19 18 16 15 16 16 14 13 11 10 9 9 9 11 13 13 11 11 10 11 11 10 8 8 7 7 7 6 6 6 5 5 5 5 6 5 6 7 8 8 9 8 10 11 12 13 13 14 15 16 16 16 15 15 16 17 18 18 17 18 18 18 18 17 17 16 17 17 17 18 18 20 20
28 29 30 29 27 26 27 26 25 24 23 22 20 19 18 16 16 16 15 14 12 11 12 11 9 9 10 10 11 11 12 12 11 11 10 9 9 9 9 9 9 8 8 8 7 8 8 7 8 8 9 9 9 10 11 12 12 12 12 13 13 14 15 16 16 16 16 17 18 19 19 19 20 20 21 20 20 20 20 19 19 18 18 20 22
29 29 30 30 29 28 28 28 27 26 25 24 22 21 20 18 17 17 17 16 14 14 14 14 13 11 10 10 10 10 12 13 12 12 12 12 11 11 11 12 11 10 10 10 10 10 9 9 9 9 10 10 10 11 12 13 14 14 14 14 15 15 16 16 17 18 18 18 18 20 21 22 22 22 23 23 23 23 23 22 22 21 21 21 23
31 29 29 30 31 31 30 29 28 28 27 26 23 22 22 20 19 19 18 18 17 17 16 16 15 14 13 12 11 10 10 12 13 13 14 13 13 13 13 13 13 12 12 12 12 12 11 11 11 11 11 11 12 13 13 15 16 16 16 17 17 18 18 18 19 19 20 20 20 20 21 22 23 24 25 25 25 25 26 26 25 25 24 24 24
31 30 31 31 31 32 31 30 29 29 28 27 25 24 23 22 21 21 20 20 20 19 18 17 16 15 15 15 14 12 11 12 13 14 15 15 14 14 15 15 14 14 14 14 14 13 13 14 13 13 13 13 14 15 16 17 18 19 19 19 20 21 21 21 21 21 21 21 21 22 22 22 24 25 26 27 27 27 28 28 28 28 28 28 27
33 32 33 32 32 32 32 31 31 30 29 29 27 25 24 24 23 22 22 22 22 21 20 20 18 17 16 16 15 15 14 13 13 14 15 16 15 15 15 15 15 15 15 15 15 15 15 15 15 15 15 16 17 17 18 19 19 20 20 20 21 21 22 22 23 23 23 23 23 23 24 24 24 25 26 26 27 28 28 29 29 30 31 31 30
34 34 34 33 33 33 33 33 32 31 30 30 28 25 24 24 24 23 22 22 23 23 22 21 21 20 19 17 17 16 16 15 15 15 15 16 16 15 14 14 15 15 16 16 16 16 16 17 17 17 17 18 19 19 19 20 21 22 21 21 21 21 22 23 24 25 24 24 25 25 26 26 26 27 27 27 28 29 29 30 30 31 32 33 33
35 35 35 35 35 34 34 33 33 32 31 30 29 27 25 24 25 24 22 22 22 23 22 21 20 21 22 21 19 17 17 17 16 16 16 16 16 16 15 14 15 15 15 16 17 17 17 18 18 18 20 20 21 21 20 21 22 24 23 23 24 24 24 24 26 27 26 26 27 28 28 29 29 29 29 30 31 31 32 32 32 33 33 34 34
35 35 35 36 36 35 34 33 34 33 32 31 29 28 26 25 25 24 23 23 23 22 22 21 21 20 21 22 21 19 19 18 17 17 16 16 16 17 17 16 17 17 17 17 17 17 18 19 19 20 21 22 22 21 21 22 24 26 26 26 26 26 26 27 28 28 28 29 31 31 31 31 31 32 32 32 33 34 34 35 35 35 35 35 36
33 34 35 35 35 35 34 33 34 34 33 31 30 28 27 26 26 24 23 23 24 23 23 22 21 21 21 21 22 22 21 19 18 18 18 18 17 16 16 16 17 18 19 19 18 17 18 19 21 21 22 22 22 21 21 22 24 26 27 27 28 29 28 28 29 30 31 32 33 33 33 33 34 34 35 35 35 36 36 36 36 37 37 36 36
33 33 34 35 35 35 34 34 35 35 34 33 30 29 28 28 27 25 24 25 25 24 24 23 22 21 21 21 21 22 22 21 20 20 21 20 17 13 12 12 13 15 17 18 17 17 17 18 20 21 21 21 21 21 20 22 24 26 27 28 29 28 28 29 30 30 31 32 32 32 33 34 35 35 35 36 36 36 36 35 35 35 36 35 36
32 33 33 34 35 35 35 35 35 35 35 34 32 31 31 30 29 28 28 28 27 25 24 24 23 22 21 21 21 20 21 21 21 22 22 22 20 16 13 11 11 13 14 14 15 15 16 17 19 19 20 21 22 20 20 20 20 20 22 25 28 29 28 27 27 28 28 29 28 28 29 31 33 33 33 34 36 34 33 33 32 32 33 34 35
33 34 34 34 35 35 36 35 34 35 35 35 34 33 33 32 31 30 30 29 27 27 25 24 23 22 21 21 20 19 19 19 19 20 21 21 21 19 17 14 13 15 15 14 15 16 17 19 19 19 20 21 22 21 21 18 14 15 17 17 20 24 23 22 23 23 21 19 20 22 25 28 29 29 29 32 32 31 30 30 30 31 32 33 34
34 35 35 35 35 35 36 35 35 35 35 35 34 34 33 32 31 29 28 27 27 27 26 24 22 22 21 20 20 19 19 18 17 17 18 18 19 19 19 17 18 21 19 15 16 17 19 20 20 20 19 20 22 23 22 18 16 17 15 9 7 9 13 16 16 15 15 17 19 21 22 24 25 25 26 28 29 28 28 29 31 32 32 32 33
33 34 35 35 36 36 36 36 36 35 35 35 35 34 32 30 30 28 26 25 25 25 24 23 22 22 21 20 20 19 18 18 16 15 16 16 16 17 18 18 19 20 19 17 19 22 23 22 20 20 19 20 22 22 21 19 18 17 9 4 3 3 6 7 8 15 21 21 19 19 21 24 25 25 25 26 27 27 28 29 31 32 32 32 34
33 35 36 36 36 37 37 37 36 36 36 35 35 33 31 29 28 27 25 24 24 24 23 24 24 23 22 21 19 17 15 15 15 15 14 14 15 15 17 18 17 17 16 17 19 22 22 21 20 20 19 20 23 22 20 18 19 18 12 8 5 2 3 5 9 13 14 13 17 22 23 25 26 26 27 28 29 29 29 29 30 31 32 32 33
34 36 36 36 37 37 37 36 35 35 35 35 34 32 31 30 29 28 27 24 24 24 24 23 22 22 21 19 16 14 13 13 13 13 13 12 12 13 15 15 15 15 14 14 17 20 21 20 19 19 19 21 22 21 21 20 18 19 19 17 14 11 10 10 8 6 7 11 17 20 21 25 27 27 27 28 30 31 30 30 32 31 32 33 33
35 35 34 35 35 35 35 35 35 35 35 34 33 32 31 31 30 30 29 27 25 24 23 21 19 18 17 16 14 13 13 12 11 11 12 12 12 12 13 14 15 14 13 13 14 15 15 14 14 16 18 20 20 18 20 20 17 18 21 20 21 21 20 15 8 6 9 8 10 15 20 25 26 24 25 27 29 31 31 33 34 32 32 33 34
33 32 32 33 34 35 35 35 35 34 34 33 33 32 32 31 30 29 29 28 26 24 20 18 15 14 13 12 11 11 12 11 10 11 10 9 8 7 7 8 8 8 8 9 10 11 10 9 10 12 13 14 15 15 17 19 18 19 20 19 19 20 21 19 17 13 8 5 9 14 19 21 20 20 24 26 30 31 33 34 33 31 33 34 34
29 28 29 30 31 32 32 32 33 34 33 33 32 32 32 31 30 28 27 26 25 22 19 15 13 11 10 9 9 9 9 9 9 9 8 7 6 6 7 8 8 7 7 8 9 9 8 8 8 9 11 12 12 12 14 18 18 17 17 17 16 17 18 18 19 16 11 9 10 9 14 19 17 20 25 25 27 29 32 34 33 32 34 36 35
24 25 25 26 27 28 28 30 32 32 32 32 32 31 31 30 29 28 27 25 22 20 17 14 12 11 10 10 9 9 9 8 8 8 8 8 8 9 10 11 11 11 11 10 9 9 9 10 10 10 11 11 11 10 11 13 13 12 14 14 14 16 15 12 12 15 14 12 10 9 17 19 17 22 26 23 24 28 32 34 34 34 36 35 33
21 22 22 22 24 25 26 27 29 30 30 30 30 30 30 30 29 28 27 25 22 19 17 14 11 11 12 11 11 10 9 8 7 7 7 8 8 9 10 11 12 11 11 11 11 11 12 14 14 12 12 12 12 12 12 13 13 14 15 14 14 15 14 11 14 18 15 10 9 11 18 23 21 25 26 25 27 29 30 32 32 34 35 33 31
Wind_Direction
158 149 134 124 120 121 122 124 121 119 112 106 105 104 104 102 100 100 101 100 99 97 96 92 87 81 76 73 75 76 78 81 82 83 82 78 78 78 77 79 81 82 82 79 79 80 79 80 80 81 81 83 84 85 84 83 82 82 84 84 85 85 86 89 92 94 93 92 88 84 83 84 83 82 82 81 79 79 78 78 77 75 74 75 76
156 147 133 126 122 121 122 123 122 124 122 114 106 107 107 103 102 102 104 103 101 99 95 89 85 81 79 78 77 79 81 82 83 84 83 81 80 78 78 79 80 81 83 83 83 83 84 84 85 86 85 86 86 87 86 83 83 83 83 85 86 85 85 88 91 93 93 92 89 86 83 82 81 80 80 79 78 77 75 75 76 74 73 74 76
150 143 135 130 126 126 125 121 121 124 124 117 108 110 109 107 106 105 107 106 105 100 93 88 88 87 85 84 82 83 85 85 86 86 84 82 81 80 80 80 80 80 82 84 84 85 86 87 89 88 87 87 87 88 86 85 86 86 86 85 85 83 83 86 90 93 93 90 88 86 81 79 78 77 77 76 77 76 75 74 74 74 72 72 74
149 142 138 136 134 133 127 123 123 126 123 115 110 110 112 113 110 111 111 109 107 101 96 93 92 91 89 86 85 87 88 89 88 88 85 83 83 82 82 82 82 82 82 83 84 85 87 89 90 90 90 91 92 92 88 87 87 88 89 85 80 77 79 84 88 91 92 91 88 85 81 78 75 74 75 75 78 78 76 75 74 74 73 70 69
148 142 142 141 137 132 123 121 120 120 117 111 110 111 114 115 113 113 110 108 105 100 98 95 93 93 93 89 89 92 91 91 91 90 89 87 86 85 85 84 84 84 83 84 85 85 86 89 92 93 97 99 99 94 88 86 87 87 86 80 74 72 77 83 87 90 91 92 89 87 84 81 76 71 69 67 68 72 73 73 71 72 72 69 66
146 141 143 142 136 127 119 119 117 117 116 112 111 113 113 112 112 110 108 106 104 102 99 99 97 96 97 97 95 95 93 92 93 94 92 88 86 87 86 86 87 87 86 85 85 86 86 88 95 101 103 103 101 94 87 87 87 85 82 77 73 75 81 85 89 89 88 86 83 82 82 83 82 75 69 63 58 61 67 70 69 70 72 71 68
142 140 142 141 136 127 125 123 118 120 121 121 118 116 115 114 113 110 110 109 107 105 103 104 103 101 102 103 99 96 95 95 96 96 93 90 92 92 89 89 89 89 88 86 86 87 87 88 96 106 107 104 98 91 87 88 89 84 81 80 78 81 86 88 89 88 84 79 75 73 73 77 79 74 70 68 64 63 66 67 67 69 73 79 80
139 139 141 142 141 135 132 126 121 125 127 126 122 118 118 117 116 115 115 113 111 108 109 110 106 105 105 103 101 100 99 97 97 98 97 95 96 94 90 91 91 90 90 89 89 88 89 89 95 103 105 102 96 89 86 87 90 88 84 83 84 86 89 90 90 88 84 78 73 68 66 66 66 66 61 64 69 69 69 69 68 69 71 78 85
140 138 141 144 144 141 135 128 123 128 128 126 122 118 119 118 118 118 116 114 110 106 111 115 111 108 105 105 105 105 103 101 100 100 100 96 95 93 92 94 92 91 91 92 92 90 90 90 97 103 104 102 95 88 87 86 90 94 91 88 88 87 86 88 89 86 81 77 74 67 61 61 62 62 60 63 68 69 69 70 73 74 71 70 76
140 138 143 143 142 142 138 133 125 125 126 122 119 117 118 119 122 119 113 109 104 107 118 119 116 112 107 107 108 108 105 102 102 102 101 96 95 94 94 96 94 93 92 92 91 90 89 91 98 104 107 104 97 90 90 88 89 93 96 95 92 86 83 82 83 80 76 74 74 71 66 66 67 67 66 64 67 72 70 69 73 72 71 75 78
140 140 143 141 141 143 142 139 129 125 123 117 114 116 120 120 120 116 108 102 100 109 120 121 118 115 110 108 109 110 107 105 106 104 99 96 99 99 97 97 97 97 96 95 94 93 92 96 102 109 113 108 101 95 92 91 89 89 92 94 92 88 82 78 77 76 75 74 70 69 70 73 74 74 73 69 69 74 76 75 74 70 73 80 77
143 143 142 142 144 146 146 144 135 129 124 114 112 117 120 119 116 111 103 99 104 110 118 121 121 118 112 110 111 112 110 111 110 102 98 99 102 100 100 101 100 99 99 98 97 95 93 96 106 120 122 114 106 101 96 93 90 87 87 87 87 84 78 76 75 77 76 70 63 63 70 75 74 73 74 75 73 73 77 76 72 70 73 77 75
147 146 143 144 148 150 149 147 141 135 130 120 119 124 121 119 116 108 101 105 110 114 119 121 123 120 114 113 115 116 111 107 104 100 102 102 100 100 100 101 103 104 102 100 98 96 97 97 109 128 129 122 114 106 102 96 91 88 85 82 79 75 70 69 68 70 66 57 56 60 67 75 78 75 75 78 77 72 72 70 67 67 70 73 79
150 146 141 144 150 153 152 151 148 141 136 127 126 133 129 126 119 111 110 114 116 119 122 120 121 121 118 117 118 118 112 106 101 101 104 102 102 102 99 98 103 106 103 100 100 100 103 102 112 129 132 129 123 114 107 98 93 91 88 84 78 73 69 65 62 58 56 54 54 54 54 65 78 77 78 76 72 70 69 69 65 65 69 74 84
151 145 139 143 149 153 154 154 152 145 140 133 130 133 133 131 121 119 122 124 122 124 130 128 128 129 125 121 123 125 124 117 107 105 104 104 104 102 98 95 101 107 106 103 103 105 107 107 113 125 129 131 131 125 114 103 96 94 97 96 85 78 75 69 63 57 54 54 49 47 46 58 74 78 85 80 75 75 70 68 65 67 70 75 86
152 144 141 142 145 151 153 153 153 150 147 143 140 137 136 134 126 127 133 132 128 130 136 141 141 138 133 128 130 134 132 123 118 121 118 117 115 111 104 95 99 104 110 110 108 113 114 113 115 119 125 131 134 132 123 111 102 98 104 106 97 88 82 69 58 54 48 46 46 45 47 61 76 83 88 79 80 77 62 61 63 64 70 82 90
155 148 145 142 144 147 151 152 152 155 155 152 147 143 140 134 129 135 140 137 134 136 139 143 147 143 140 138 138 140 138 131 129 133 131 133 129 119 115 111 107 100 108 116 114 122 121 116 115 115 122 129 135 137 131 120 111 103 107 110 101 87 72 61 58 54 42 42 42 40 47 60 73 88 91 75 78 72 58 61 60 64 78 94 91
159 155 151 145 145 145 151 152 153 158 162 159 152 144 138 134 131 136 141 139 138 142 140 136 141 147 150 147 145 143 143 142 139 140 139 142 137 127 128 131 120 95 106 119 123 127 122 117 115 116 121 126 135 142 139 129 121 108 111 115 102 75 51 53 66 55 43 41 34 36 51 58 68 83 90 82 82 69 61 61 62 72 78 90 85
164 162 157 150 148 147 151 153 156 160 164 165 157 149 142 138 135 135 139 141 141 143 139 131 134 145 156 159 155 143 139 146 148 148 147 146 141 137 139 139 125 95 106 119 130 129 124 124 121 122 125 127 134 142 145 141 134 119 119 121 100 62 47 54 62 46 32 28 26 34 47 52 73 83 86 89 80 54 47 45 62 74 58 71 96
167 167 164 158 154 153 154 154 160 161 166 168 164 160 152 148 143 142 143 145 148 145 137 129 128 135 150 161 162 151 141 144 149 154 154 152 150 148 150 147 130 116 116 120 136 139 134 134 129 128 129 130 135 143 149 151 150 139 130 131 106 60 52 55 50 28 15 13 16 22 31 49 93 102 99 103 77 44 37 42 57 54 27 44 202
171 173 170 166 162 161 160 159 162 164 168 171 171 169 164 161 154 150 149 149 151 148 142 132 128 128 136 149 155 156 152 150 154 162 165 165 165 165 171 176 153 130 131 124 137 151 147 139 132 128 132 133 137 144 153 160 160 149 138 138 122 60 43 48 30 1 358 359 3 7 20 59 118 133 140 156 117 48 34 338 331 311 281 279 257
173 176 176 175 171 169 167 165 166 167 171 173 176 175 173 172 166 161 156 153 152 150 148 140 134 128 128 136 142 144 147 151 158 167 175 179 182 187 192 197 184 148 147 138 135 156 155 145 136 132 133 129 133 143 154 163 161 152 144 144 135 77 15 13 353 336 337 340 348 352 0 44 147 175 174 174 258 250 239 267 290 286 280 274 260
175 178 179 177 177 176 175 175 172 171 174 176 179 179 179 178 175 172 165 160 157 153 152 149 142 134 132 134 135 133 128 133 147 164 174 180 185 190 192 190 182 155 151 152 146 157 161 154 143 140 139 129 127 134 148 160 159 156 152 156 154 139 295 324 326 317 319 324 331 332 333 344 146 170 193 237 282 250 244 265 269 266 269 262 259
178 179 178 176 177 178 180 182 180 178 177 179 182 183 183 182 182 180 177 172 164 159 158 156 151 145 144 142 140 137 129 126 132 154 168 176 180 180 184 182 174 161 161 164 162 163 163 159 151 150 152 147 137 133 144 157 162 166 171 184 191 192 245 293 307 303 304 308 313 315 314 315 243 192 221 268 264 253 261 261 257 256 257 254 256
180 179 180 178 177 179 182 184 185 185 183 184 186 187 187 186 187 186 187 184 176 168 165 166 162 160 162 160 160 157 157 156 148 164 165 169 176 177 171 156 149 136 149 169 171 170 169 169 165 162 166 170 168 158 158 164 173 183 193 210 224 225 246 270 278 286 294 298 300 303 302 302 277 225 239 273 260 261 276 270 256 250 253 251 250
180 184 187 183 181 182 184 186 186 187 189 191 190 192 194 192 191 190 190 192 188 180 174 175 174 172 175 184 188 184 187 194 212 196 176 169 162 168 167 147 135 127 137 163 172 176 183 185 183 183 185 193 203 207 198 194 196 198 207 222 237 241 248 259 264 272 282 290 293 296 295 296 287 254 247 264 260 259 274 276 258 262 274 254 254
183 189 192 188 186 186 189 191 189 189 192 195 196 198 200 199 195 192 193 195 195 191 185 182 182 180 182 195 199 194 197 209 236 221 197 193 161 162 176 158 135 125 135 160 176 183 184 193 204 207 207 216 229 239 241 242 243 242 240 244 254 257 256 258 263 268 273 281 286 289 290 290 288 278 264 257 256 256 266 273 260 268 282 260 268
185 188 193 193 190 190 193 195 194 196 196 197 201 202 201 200 198 196 194 196 199 197 194 188 187 188 189 198 201 201 210 226 239 232 215 212 195 192 206 198 189 163 181 199 210 213 197 206 222 225 227 235 239 245 252 261 264 264 264 263 266 267 264 260 261 265 268 273 277 281 284 285 285 284 279 266 262 261 263 270 263 260 263 257 271
189 188 190 195 195 194 196 199 201 202 201 201 204 203 199 198 200 200 193 195 202 197 197 196 193 194 198 206 207 209 222 234 238 236 230 229 219 218 235 237 236 247 255 253 248 257 261 259 255 245 245 249 254 260 263 264 262 261 263 264 265 266 269 269 267 265 264 266 270 274 277 281 282 281 280 274 269 266 265 269 267 261 256 252 264
195 194 192 194 196 197 199 202 205 205 204 205 207 206 202 201 203 202 198 201 208 205 206 209 205 203 205 213 219 222 228 233 236 236 238 244 238 231 238 247 252 254 260 266 261 266 271 275 278 269 265 267 274 278 274 271 267 264 263 265 265 266 270 273 273 270 266 266 266 269 271 274 278 278 278 277 273 270 267 267 267 269 264 254 259
200 200 198 197 196 199 202 204 206 207 207 209 211 209 206 208 208 206 207 210 213 215 217 220 221 216 214 219 227 234 233 230 231 234 239 248 250 245 243 246 253 257 263 268 265 268 271 275 279 276 276 279 285 286 283 283 283 283 280 277 277 275 275 276 278 279 277 274 271 270 270 271 273 275 276 276 275 273 270 268 265 267 268 259 258
204 203 202 201 200 201 204 206 207 208 209 212 214 212 211 211 212 212 213 214 215 217 218 220 223 224 226 227 232 238 234 230 229 233 239 245 253 255 250 248 254 260 266 269 268 270 272 273 273 272 275 279 284 287 286 286 290 293 290 290 290 288 288 286 284 284 283 281 278 275 274 274 273 273 274 274 275 274 272 271 268 265 265 263 261
206 205 203 203 204 203 204 207 209 209 211 214 215 216 215 213 214 216 215 214 215 218 218 218 222 224 228 230 233 238 236 234 235 238 240 242 248 253 254 253 257 262 265 269 269 269 270 270 270 270 274 276 281 287 285 284 288 290 289 290 289 290 291 290 287 286 285 283 282 280 278 277 276 274 273 273 273 273 272 272 271 269 266 265 264
206 205 206 205 205 204 206 208 209 211 213 214 216 217 217 216 216 217 217 215 217 221 223 222 224 223 226 231 234 238 240 238 238 241 243 243 243 247 253 255 258 262 264 267 267 267 269 271 273 272 274 276 280 285 284 284 287 288 288 288 287 289 289 287 286 285 284 284 284 282 281 279 278 277 275 275 274 273 273 273 272 271 270 269 268
206 206 208 207 206 205 207 209 210 211 213 215 217 218 219 219 218 219 219 219 221 225 227 230 231 228 226 228 232 237 240 240 240 242 245 246 243 243 249 253 257 261 264 266 266 267 269 272 275 274 275 277 280 284 284 285 288 288 290 290 289 289 287 286 287 285 284 285 284 283 282 280 279 279 278 277 277 276 275 274 274 273 272 272 270
207 207 209 208 207 207 207 210 211 211 212 215 217 219 220 220 220 222 223 225 227 228 230 233 235 234 232 230 231 234 239 242 243 244 246 248 249 247 250 252 253 257 261 264 263 265 269 272 274 275 277 279 282 284 286 289 291 292 294 293 292 291 290 291 291 291 290 287 285 284 283 282 281 281 281 280 280 280 279 277 277 276 275 274 272
210 210 209 208 208 207 208 211 213 212 212 214 217 218 220 221 221 222 224 227 230 231 230 231 234 233 235 237 236 235 240 243 243 245 249 254 257 256 258 259 258 259 261 262 264 267 270 271 273 275 277 279 281 284 288 294 296 297 297 296 296 294 293 294 295 295 293 289 287 286 285 285 284 283 282 282 283 283 283 281 280 279 278 276 275
213 213 212 210 209 208 209 212 214 215 214 214 216 218 220 222 222 224 226 227 230 232 231 232 233 232 233 237 239 240 244 245 244 245 249 257 263 261 262 263 265 267 266 265 267 269 270 270 271 273 274 276 279 284 292 299 300 298 297 297 297 295 293 293 294 295 293 290 288 287 287 287 286 285 283 283 284 285 285 285 284 282 281 279 278
213 212 212 212 211 210 211 213 214 215 215 216 217 217 219 221 220 222 226 228 229 232 233 233 234 235 234 235 238 242 245 246 246 247 251 260 269 270 265 263 267 269 269 269 267 269 271 272 274 275 277 279 282 288 295 298 298 295 295 295 296 294 293 293 293 292 291 289 288 287 287 288 286 286 285 285 285 285 286 287 287 286 285 283 282
212 210 210 212 213 212 212 213 214 215 214 214 215 215 214 215 217 219 225 228 230 232 235 236 237 238 237 238 239 241 245 246 248 252 256 261 269 277 269 265 271 269 266 267 267 269 274 278 280 281 282 283 285 289 293 293 292 291 291 293 295 295 293 292 292 291 290 288 286 286 288 289 288 287 287 287 286 286 286 287 287 287 286 285 284
211 210 209 211 213 213 213 213 213 213 213 213 213 213 211 210 214 220 226 229 231 233 235 237 238 240 240 241 242 244 246 248 250 254 257 259 262 269 265 264 282 279 268 268 268 266 270 277 279 279 280 279 281 286 289 290 290 289 290 293 296 294 291 290 290 292 292 290 287 288 291 291 290 290 291 290 289 288 287 286 287 287 287 287 286
210 210 211 212 213 213 214 215 213 212 213 214 213 214 214 213 216 221 226 228 230 233 235 237 239 241 243 244 246 249 250 253 256 257 260 261 262 264 262 264 278 275 265 270 275 271 269 270 270 273 276 276 280 286 286 286 284 283 289 297 298 297 296 293 290 292 292 290 290 290 292 292 291 292 293 292 291 290 289 290 290 291 290 290 290
212 212 213 213 213 213 215 216 215 214 214 216 216 217 219 220 222 225 227 228 231 234 237 240 242 242 244 246 250 253 256 259 262 262 265 267 266 266 266 267 274 271 264 268 278 275 269 269 269 271 275 278 281 283 282 278 277 281 286 291 294 304 307 300 295 296 295 294 292 291 294 293 292 292 291 290 290 290 292 294 294 293 292 292 292
212 213 212 212 213 214 215 216 216 217 216 217 219 221 223 225 227 230 232 233 235 237 238 240 242 243 246 250 254 256 259 262 265 267 270 270 268 268 268 268 275 277 268 268 277 276 271 270 272 270 271 274 276 281 281 274 274 279 279 272 275 290 294 300 306 301 299 298 296 298 301 300 298 296 293 290 289 291 292 293 293 292 291 291 293
210 213 212 211 213 215 217 217 218 218 218 219 220 221 223 224 225 226 230 233 235 235 235 237 238 241 246 249 252 255 259 263 265 268 273 274 271 270 272 271 278 281 273 274 282 282 276 272 272 270 270 273 275 279 280 275 276 278 272 266 283 288 260 309 318 301 294 292 295 300 302 304 303 300 297 295 295 295 295 296 297 295 294 294 296
211 214 214 214 215 216 217 218 219 219 219 220 220 221 222 223 221 219 220 223 227 230 233 236 238 239 242 245 248 251 253 259 264 268 273 278 277 274 273 271 273 273 271 276 280 280 277 272 272 276 278 281 278 275 278 282 286 287 282 273 273 273 277 303 318 301 289 280 285 292 293 300 304 300 299 301 302 301 299 302 301 300 299 298 299
212 214 215 215 216 217 218 218 219 220 221 221 221 221 222 222 221 220 220 221 224 229 234 239 242 242 242 243 244 243 245 249 254 263 268 269 269 267 266 265 264 263 265 275 283 289 292 287 290 293 289 287 282 277 281 287 292 297 295 285 278 278 280 290 294 292 303 284 269 277 282 293 301 301 300 303 305 301 300 302 301 301 301 300 299
211 212 214 215 216 217 218 219 220 221 222 223 222 221 221 222 222 222 223 225 228 233 237 238 237 235 231 228 230 232 237 239 242 257 265 262 264 268 275 281 281 279 280 294 310 323 329 320 318 315 308 307 300 292 294 295 290 292 297 292 288 287 286 287 285 285 294 297 288 284 286 294 298 297 299 302 304 303 302 302 301 301 303 302 301
209 210 212 214 215 216 218 219 220 222 223 223 222 222 222 223 222 222 223 226 230 235 235 227 220 216 212 209 216 221 222 223 231 248 255 258 271 280 286 290 295 300 295 297 302 306 317 318 319 324 323 324 321 315 314 306 294 293 301 298 293 296 294 291 292 291 287 290 297 298 303 307 301 295 297 300 303 306 306 305 303 303 305 305 303
208 209 211 212 213 214 216 217 219 220 221 222 221 221 221 222 222 222 222 224 226 226 221 214 212 212 205 200 204 200 193 197 210 225 234 246 261 266 270 274 277 282 282 284 283 281 289 293 299 309 307 309 316 324 330 328 325 329 328 320 312 308 301 294 302 306 296 283 283 297 308 310 304 300 303 303 303 306 307 306 304 305 306 307 305
207 209 210 211 212 212 214 215 217 218 218 219 220 220 220 220 221 221 222 222 218 211 207 203 201 201 196 192 194 197 198 204 213 224 237 249 257 261 266 269 269 269 270 273 275 277 280 279 283 293 294 297 303 306 312 321 328 331 331 334 333 326 319 316 318 313 301 289 293 301 305 306 303 301 304 307 306 305 305 305 305 306 308 308 307